Wetbulb
54.84 55.08 55.16 55.28 55.50 55.81 56.19 56.45 56.85 57.43 58.58 58.45 58.71 58.14 57.65 57.32 57.35 52.99 49.96 50.43 49.20 45.61 47.08 50.46 50.87 47.85 47.76 47.03 43.96 46.47 47.71 48.29 47.73 45.91 44.64 45.24 45.26 46.81 46.12 46.97 45.83 44.70 43.30 43.52 43.23 40.43 40.70 54.92 54.19 48.23 50.22 53.68 56.05 57.45
54.88 55.06 55.12 55.12 55.44 55.68 55.76 56.07 56.49 57.09 57.85 58.35 58.64 58.27 57.72 56.82 57.46 54.25 47.92 51.58 52.25 47.31 48.10 51.94 54.23 55.37 53.74 53.07 48.23 47.68 48.33 48.79 48.88 46.71 46.01 47.54 47.24 46.22 44.22 44.90 48.03 44.43 46.64 44.95 46.43 46.74 52.04 54.68 53.74 55.49 55.56 53.68 55.22 58.50
53.50 53.39 53.37 53.57 54.23 55.18 55.89 56.23 56.51 56.85 57.45 58.09 58.18 58.24 57.43 56.51 57.22 54.79 49.11 48.07 48.65 47.11 48.09 47.18 49.95 53.99 55.51 56.52 56.84 48.27 48.25 52.55 50.91 50.52 48.08 46.99 45.70 47.11 43.77 45.14 46.54 49.53 49.93 47.10 47.03 49.68 51.67 53.67 55.66 56.17 57.73 56.70 58.26 59.70
52.78 52.92 53.12 53.41 53.70 54.33 55.46 55.83 56.33 56.83 57.17 57.85 57.95 57.84 57.20 56.48 57.22 55.68 51.58 48.79 48.19 46.01 45.09 46.52 53.98 51.87 54.44 54.26 55.72 56.02 50.99 52.48 51.30 49.74 46.74 46.15 45.33 48.83 46.22 46.64 47.00 49.35 49.87 46.95 46.78 49.52 50.86 53.19 54.82 55.68 57.88 59.08 60.02 61.18
52.28 52.62 52.80 53.09 53.58 53.90 54.61 55.62 55.99 56.83 57.19 57.60 57.63 57.52 57.00 56.32 56.17 56.07 54.08 52.85 50.85 47.94 44.71 46.03 49.65 51.33 51.93 52.50 54.25 54.98 52.96 50.77 49.61 48.81 46.40 45.16 47.13 48.89 47.96 47.92 46.27 50.34 47.98 46.68 46.37 51.11 50.79 52.07 55.87 58.88 58.46 58.79 60.28 60.76
52.32 52.36 52.63 53.14 53.44 53.97 54.31 55.24 55.81 56.55 57.07 57.32 57.33 56.91 56.45 55.77 55.50 51.80 46.44 50.29 53.13 50.80 45.10 42.76 47.93 48.60 50.90 50.46 51.22 52.05 52.44 50.18 49.76 48.77 47.97 48.95 50.35 48.72 45.37 43.81 49.24 51.43 52.10 51.72 50.78 53.58 54.92 56.22 56.60 58.32 59.04 59.92 60.88 60.51
51.23 51.52 51.62 52.02 53.09 54.16 54.40 55.04 55.48 55.99 56.37 56.45 56.29 55.93 55.48 55.22 52.89 48.28 46.90 48.46 51.30 49.85 45.22 42.61 43.68 49.54 51.85 49.80 47.59 48.13 50.36 49.05 49.28 47.65 46.83 48.61 51.87 50.07 46.43 44.02 51.51 51.14 53.18 54.33 54.27 54.90 53.71 55.93 55.57 59.15 60.62 61.80 60.75 62.87
50.90 51.94 52.80 53.31 53.69 54.13 54.27 54.98 55.36 55.51 55.59 55.51 55.33 55.17 54.92 53.95 52.69 50.18 51.63 52.24 50.54 47.26 45.99 41.36 42.41 45.54 49.67 46.92 46.20 47.36 46.45 46.67 46.74 47.03 47.55 46.46 49.92 48.92 46.70 50.33 51.95 53.90 54.28 53.38 54.82 55.24 54.57 57.19 58.19 58.77 61.44 61.41 60.80 61.42
52.51 52.94 53.08 53.55 53.72 53.75 53.97 54.54 55.22 55.41 55.39 55.27 55.41 55.19 52.96 51.03 49.10 50.43 55.83 55.06 51.60 47.18 42.66 42.21 40.27 42.33 49.14 46.25 46.68 47.39 46.88 43.53 46.90 45.79 45.62 48.55 45.82 45.57 49.24 50.70 51.67 53.50 53.98 54.87 54.47 55.34 55.60 55.44 56.00 56.89 59.17 60.54 60.55 60.11
52.56 53.10 53.53 53.76 53.58 53.67 53.83 54.42 54.94 54.99 54.89 54.68 53.68 51.08 48.92 50.60 55.38 55.23 50.42 46.86 47.02 46.47 44.67 41.29 43.52 43.08 45.16 44.55 45.42 45.87 45.82 44.50 43.42 46.35 47.89 45.28 44.16 49.18 50.24 51.31 51.36 53.04 55.20 55.48 54.12 53.70 53.73 54.23 55.23 56.12 57.30 60.41 61.24 60.55
51.39 52.10 52.62 53.63 54.00 53.97 54.16 54.38 54.64 54.55 53.92 52.16 49.77 49.39 53.84 55.63 51.90 49.57 46.43 44.96 43.66 42.14 43.98 43.34 43.61 42.55 46.92 42.90 42.86 46.12 44.80 44.01 41.81 45.26 46.11 42.86 43.34 48.99 54.86 55.76 56.82 56.47 53.77 55.61 56.60 56.30 56.12 56.36 56.21 56.81 59.24 62.07 62.03 61.42
50.45 50.71 51.16 51.98 53.14 54.35 54.43 54.27 54.11 53.12 52.17 51.41 51.21 52.23 53.07 50.22 48.34 45.69 44.64 45.21 43.20 43.55 46.46 44.16 43.96 44.12 44.97 45.93 44.62 46.12 45.56 45.52 42.35 47.77 45.05 42.51 45.41 53.79 54.56 55.10 56.40 55.29 54.04 54.79 56.31 56.14 56.17 57.17 57.15 58.48 60.74 61.79 61.75 61.34
49.33 49.44 50.06 50.50 51.17 52.32 54.41 54.05 53.37 52.66 52.00 51.76 50.32 48.99 48.90 48.45 41.49 42.48 41.66 43.27 44.68 48.07 47.65 46.86 44.80 44.44 44.39 45.61 44.78 45.74 46.41 44.63 47.72 44.85 45.08 45.63 54.41 54.21 53.89 55.07 55.42 58.29 56.67 55.84 56.36 56.60 56.92 57.15 58.09 60.01 60.56 62.06 60.89 60.70
48.95 48.54 48.61 49.80 50.01 50.45 51.29 52.31 52.22 51.75 50.53 47.94 46.15 39.90 44.43 43.27 45.22 44.75 44.65 46.35 49.58 47.92 47.55 47.42 46.22 44.64 44.44 44.14 45.24 44.95 48.05 47.45 44.40 41.14 43.72 47.87 51.72 53.26 54.51 55.34 54.63 55.39 57.89 58.26 57.43 56.79 56.30 56.28 56.59 58.73 61.45 61.69 61.08 59.37
48.78 49.28 47.71 47.73 49.39 50.14 50.26 51.06 51.60 50.80 49.25 46.80 46.32 40.54 43.69 46.62 45.80 47.42 48.13 47.05 48.46 49.69 48.92 47.72 47.39 46.69 45.17 43.91 44.74 44.07 42.52 42.13 44.50 42.41 46.91 50.61 50.76 51.69 52.78 53.92 54.72 54.77 55.67 56.19 57.91 57.75 55.85 56.56 56.29 58.31 59.21 60.22 60.04 58.56
48.27 48.62 46.79 47.88 48.82 49.17 49.53 50.35 50.37 49.97 49.41 47.82 46.84 43.98 44.56 43.63 45.36 46.68 47.57 46.95 49.90 48.73 50.29 48.81 47.40 44.87 45.83 44.81 44.35 43.37 42.75 42.42 46.26 48.78 50.69 50.99 51.07 50.88 51.68 53.98 54.86 55.85 55.08 55.44 56.95 58.10 57.37 57.28 56.83 57.16 58.51 58.74 58.45 57.65
47.57 46.86 47.54 48.14 48.74 49.11 49.24 48.87 48.87 47.38 46.73 45.55 43.55 46.19 46.34 46.13 46.04 47.07 47.29 48.27 50.20 49.71 47.85 46.08 44.27 46.63 46.04 43.93 43.37 47.29 45.30 47.43 49.55 50.33 50.44 50.24 50.02 50.70 51.57 53.90 55.83 55.99 57.04 57.31 57.13 58.29 56.51 56.52 56.72 56.88 56.09 56.97 57.62 57.45
45.73 47.11 47.78 48.14 48.18 47.78 49.01 48.14 46.71 45.68 42.72 43.88 41.94 43.27 46.21 47.46 47.38 47.36 48.03 48.54 47.78 47.39 48.47 46.54 47.36 43.28 45.07 42.69 43.20 46.10 48.62 49.77 50.62 50.85 51.18 51.84 51.99 51.42 51.79 51.59 54.13 55.24 56.09 56.38 57.05 59.13 57.59 55.83 55.62 55.93 56.19 56.35 55.58 55.02
45.59 46.61 47.50 47.65 47.47 44.69 44.85 45.90 45.90 41.38 43.09 43.93 45.07 45.76 45.27 45.73 47.10 48.73 48.89 48.82 48.93 49.16 48.33 48.52 46.47 42.72 43.75 46.38 46.93 47.50 49.05 50.49 49.32 49.46 50.57 51.40 51.15 51.03 51.97 53.57 55.14 54.80 55.54 56.67 57.73 58.68 58.54 57.09 57.39 56.91 57.23 57.43 55.68 55.38
47.93 48.10 48.28 48.33 47.57 43.50 43.27 44.12 47.35 42.69 40.64 42.39 43.58 43.36 44.27 44.24 45.99 46.25 47.39 48.32 46.77 46.80 44.78 45.27 44.81 45.02 45.66 48.38 49.66 49.95 50.22 50.43 50.61 49.93 50.38 51.61 52.10 52.03 53.15 54.27 54.80 55.03 55.55 56.55 58.42 53.25 58.04 57.62 58.12 58.24 57.91 57.47 56.43 54.40
46.34 46.92 48.86 47.11 44.95 43.37 41.96 43.20 43.78 43.48 43.19 41.94 43.00 42.55 41.62 42.43 42.86 43.79 44.01 46.51 45.46 44.76 43.84 44.18 45.51 48.63 48.17 48.53 51.39 51.18 50.99 51.39 51.01 51.59 51.27 51.07 52.92 52.89 53.20 57.13 57.58 56.71 55.38 56.95 58.22 57.26 55.97 58.44 58.20 58.32 57.17 57.72 57.95 56.73
43.89 48.35 42.49 44.09 42.23 43.67 42.48 45.13 42.88 43.92 40.59 40.16 40.06 40.72 39.62 38.84 39.64 41.46 44.11 41.41 41.11 44.03 45.60 44.57 45.06 47.18 46.31 46.31 48.05 49.84 50.61 51.78 51.95 51.50 49.14 49.54 52.59 52.99 54.11 56.71 56.71 58.03 57.55 58.78 59.62 59.18 59.18 59.63 58.92 58.74 58.26 58.18 56.81 57.63
44.95 45.44 42.77 42.84 40.65 37.70 36.44 41.02 39.59 39.26 36.92 37.41 38.45 37.70 38.26 39.19 40.53 42.32 39.13 40.31 42.40 45.37 45.98 45.55 46.26 46.46 46.33 46.92 46.75 46.64 48.63 49.82 49.37 50.07 52.04 53.05 53.39 53.61 53.93 55.46 58.24 57.95 56.89 58.29 59.50 60.22 59.82 53.83 55.61 58.66 58.12 58.29 58.29 55.06
44.74 39.87 38.58 37.33 36.41 32.55 37.32 35.71 38.11 37.35 37.41 36.37 35.96 35.40 36.84 37.53 39.17 37.94 36.95 39.35 42.23 42.85 43.34 44.03 44.22 44.13 44.22 45.02 45.12 46.21 47.15 48.70 49.22 50.72 52.16 52.64 51.39 50.88 52.23 54.24 55.68 58.43 57.81 58.26 59.10 59.63 60.17 59.72 54.70 58.43 58.46 58.28 56.99 54.76
30.34 29.23 31.17 23.17 33.11 32.97 32.63 33.77 35.22 34.89 33.73 35.17 34.87 35.37 36.65 37.12 35.25 35.81 36.92 38.19 38.55 39.42 42.10 42.11 41.30 42.54 42.92 43.18 43.61 45.10 46.88 47.80 47.54 48.10 49.28 48.71 49.10 49.44 51.37 53.20 54.60 56.05 58.71 59.72 58.51 58.66 59.27 60.06 59.49 59.42 58.56 57.68 55.61 54.67
26.52 30.47 27.67 30.86 30.45 30.59 31.40 30.90 33.23 33.72 33.55 33.19 34.07 36.08 34.58 34.35 33.77 33.61 36.12 37.93 40.16 43.27 44.18 44.57 44.57 44.14 43.53 43.13 43.61 44.38 45.40 46.91 47.58 47.22 49.15 48.68 49.00 48.87 49.08 49.64 51.47 54.57 59.16 59.79 59.09 58.32 58.59 59.84 59.38 58.80 58.02 56.12 47.68 54.51
24.30 28.82 30.72 32.45 31.50 31.36 30.46 31.68 32.59 32.13 32.09 32.14 34.01 33.16 32.44 30.88 31.94 35.66 39.10 41.88 42.37 43.45 44.72 44.94 45.22 45.09 44.67 45.11 45.80 46.76 47.36 46.89 48.36 49.39 50.89 50.59 50.57 51.84 52.19 52.40 53.04 55.39 59.10 60.06 59.53 59.43 58.58 58.59 58.43 58.30 57.73 56.75 55.05 55.60
31.97 30.66 29.10 30.16 30.03 31.15 30.20 30.07 30.59 30.80 32.49 33.92 33.29 31.71 32.57 33.65 34.03 37.17 42.02 43.62 43.47 43.53 43.23 43.00 43.94 45.13 45.01 44.99 46.27 46.82 46.83 48.08 49.95 50.68 51.76 52.90 56.11 55.48 52.14 52.52 53.46 46.61 57.28 60.60 60.11 59.05 58.64 58.06 57.78 58.14 56.23 55.49 54.46 54.74
30.90 32.09 31.20 27.64 29.80 29.91 30.53 30.77 31.32 32.99 34.56 33.60 32.64 32.10 33.64 36.49 38.48 41.16 42.66 43.20 43.94 43.22 41.47 41.17 42.13 43.28 44.72 45.73 46.58 47.31 47.53 47.68 48.33 48.00 48.74 48.28 49.34 51.80 56.91 56.25 55.42 55.95 56.57 57.81 46.44 52.56 58.18 57.91 56.16 56.15 55.95 54.60 54.69 54.45
29.38 32.18 30.29 30.18 27.71 28.75 32.62 35.39 34.54 35.64 35.49 36.01 36.05 35.70 36.05 37.29 39.34 41.15 40.74 41.63 41.40 41.34 41.96 42.13 42.53 42.44 42.68 44.73 44.45 45.41 47.60 48.42 48.65 48.54 47.75 48.10 50.00 51.91 56.36 58.03 57.82 58.31 58.59 57.97 56.77 55.39 45.68 54.08 52.30 55.83 54.12 53.90 53.53 53.28
33.62 32.17 31.48 31.61 31.69 34.27 36.48 37.04 36.93 36.74 36.65 36.54 37.24 36.82 38.01 40.06 40.32 40.33 41.74 42.24 42.89 42.49 41.83 41.89 42.47 43.18 43.57 44.28 45.40 45.44 45.80 47.78 48.98 49.94 49.88 50.41 51.08 52.48 55.02 57.38 58.40 58.57 58.71 57.96 57.07 56.63 55.99 55.48 56.02 56.08 55.09 54.27 53.73 52.75
33.02 32.25 31.85 30.82 32.16 36.46 38.83 37.75 37.54 37.19 38.17 37.64 37.70 38.69 38.60 38.27 37.82 41.35 43.26 43.94 42.63 42.23 43.10 43.65 43.53 43.32 44.56 45.74 48.13 48.93 44.06 47.94 48.46 49.86 50.53 51.44 53.19 53.74 53.93 54.63 56.86 57.75 58.47 57.68 57.18 56.90 56.93 56.60 55.86 55.63 55.07 55.16 55.03 54.86
35.34 35.70 35.59 35.75 36.17 37.63 40.30 40.43 40.30 40.08 39.54 39.28 40.08 41.27 41.67 41.23 40.12 44.05 46.56 47.07 45.41 44.35 44.16 44.59 45.19 45.71 45.91 46.14 47.28 49.45 46.64 49.15 47.85 43.14 42.07 41.73 42.45 48.12 55.60 56.55 56.88 58.19 58.39 57.85 57.55 57.64 57.41 57.04 56.66 56.42 56.39 56.04 56.10 56.43
MSLP
1013.94 1013.82 1013.63 1013.48 1013.36 1013.18 1013.06 1012.89 1012.74 1012.64 1012.58 1012.80 1013.04 1013.33 1013.52 1013.67 1013.81 1014.22 1014.18 1014.06 1014.28 1013.88 1011.92 1010.57 1009.74 1009.19 1009.03 1009.06 1009.16 1008.40 1008.09 1007.70 1007.52 1007.87 1008.19 1008.10 1007.92 1007.46 1007.31 1007.20 1007.24 1007.51 1007.86 1007.92 1007.40 1006.31 1005.01 1004.02 1004.03 1004.16 1003.63 1002.92 1002.62 1002.33
1013.78 1013.58 1013.38 1013.16 1012.98 1012.79 1012.61 1012.52 1012.35 1012.25 1012.25 1012.33 1012.61 1012.91 1013.15 1013.39 1013.57 1013.88 1014.29 1013.84 1013.88 1014.16 1011.79 1010.34 1009.30 1008.58 1008.39 1008.34 1008.82 1008.73 1008.91 1008.79 1008.38 1008.94 1009.24 1009.09 1008.83 1008.70 1008.43 1008.43 1008.00 1008.23 1007.59 1007.29 1006.97 1005.28 1004.06 1003.97 1003.99 1003.53 1003.49 1003.51 1002.85 1002.38
1013.58 1013.35 1013.20 1013.02 1012.75 1012.44 1012.14 1011.96 1011.86 1011.78 1011.73 1011.92 1012.20 1012.56 1012.83 1013.08 1013.31 1013.52 1013.87 1013.94 1014.01 1013.66 1011.31 1009.97 1008.10 1006.92 1007.11 1007.17 1007.46 1008.60 1008.42 1008.16 1008.60 1008.75 1009.32 1009.50 1009.38 1009.13 1009.18 1008.60 1008.27 1007.97 1007.69 1007.35 1006.68 1004.90 1004.12 1003.58 1003.36 1003.47 1003.18 1003.04 1002.66 1002.18
1013.34 1013.08 1012.79 1012.61 1012.41 1012.13 1011.80 1011.57 1011.41 1011.29 1011.31 1011.47 1011.71 1012.15 1012.51 1012.78 1013.00 1013.20 1013.58 1013.67 1013.85 1013.76 1012.80 1009.05 1007.25 1006.83 1005.77 1006.23 1006.76 1007.07 1007.67 1008.23 1008.55 1009.01 1009.46 1009.71 1009.58 1009.22 1009.21 1008.95 1008.50 1007.94 1007.96 1007.11 1006.21 1004.63 1004.00 1003.40 1003.02 1003.03 1003.10 1002.77 1002.28 1002.01
1012.98 1012.76 1012.51 1012.28 1012.08 1011.82 1011.55 1011.19 1011.02 1010.77 1010.80 1010.99 1011.25 1011.75 1012.15 1012.45 1012.71 1012.87 1013.03 1013.00 1013.17 1013.61 1012.79 1010.05 1007.65 1005.75 1005.25 1005.41 1005.95 1006.65 1007.45 1008.17 1008.92 1009.46 1009.58 1009.54 1009.20 1009.31 1009.28 1009.10 1008.08 1007.27 1006.52 1006.21 1005.04 1003.62 1003.44 1003.28 1002.93 1003.02 1003.06 1002.87 1002.63 1002.38
1012.66 1012.38 1012.10 1011.80 1011.60 1011.38 1011.21 1010.91 1010.71 1010.47 1010.49 1010.64 1010.91 1011.37 1011.85 1012.15 1012.56 1012.97 1013.01 1012.63 1012.52 1013.03 1013.18 1011.20 1007.66 1006.00 1005.23 1005.32 1005.79 1006.39 1007.06 1008.01 1008.48 1008.71 1008.83 1008.47 1008.06 1008.28 1008.92 1008.53 1006.07 1005.37 1004.95 1004.45 1004.07 1003.49 1003.38 1003.18 1003.06 1002.93 1002.74 1002.83 1002.95 1002.84
1012.21 1011.83 1011.57 1011.35 1011.12 1010.91 1010.79 1010.63 1010.49 1010.35 1010.30 1010.38 1010.67 1011.08 1011.52 1011.86 1012.29 1012.55 1012.46 1012.43 1012.30 1012.84 1012.85 1011.51 1009.03 1006.20 1005.20 1005.16 1005.91 1006.54 1006.98 1007.28 1007.68 1008.27 1008.25 1007.92 1007.90 1007.92 1007.99 1007.26 1004.19 1004.34 1004.04 1003.78 1003.67 1003.62 1003.41 1003.08 1003.07 1003.15 1002.91 1002.56 1002.72 1003.07
1011.72 1011.37 1010.94 1010.65 1010.56 1010.43 1010.38 1010.31 1010.27 1010.24 1010.33 1010.48 1010.69 1010.94 1011.26 1011.74 1012.11 1011.85 1010.94 1011.75 1012.36 1012.69 1012.58 1011.84 1009.26 1007.33 1005.16 1005.30 1005.72 1005.88 1006.70 1007.11 1007.17 1007.03 1007.24 1007.28 1007.69 1007.64 1007.03 1004.65 1003.88 1003.04 1003.11 1002.80 1002.46 1002.67 1002.88 1002.88 1002.92 1002.96 1002.94 1002.96 1003.47 1003.82
1011.20 1010.75 1010.41 1010.19 1010.05 1009.99 1010.03 1010.00 1010.05 1010.11 1010.19 1010.38 1010.61 1010.92 1011.46 1011.68 1011.65 1010.54 1010.30 1010.81 1011.81 1012.57 1012.25 1011.51 1010.12 1007.88 1005.57 1005.57 1005.48 1005.72 1005.80 1006.82 1006.57 1006.48 1006.49 1006.52 1006.89 1006.48 1004.73 1003.78 1003.05 1002.43 1002.34 1001.74 1001.55 1002.07 1002.50 1002.78 1002.47 1002.94 1003.03 1003.36 1003.91 1004.36
1010.78 1010.28 1009.92 1009.73 1009.63 1009.55 1009.62 1009.74 1009.86 1009.96 1010.09 1010.33 1010.71 1011.02 1010.88 1010.46 1010.38 1010.63 1010.61 1011.27 1011.87 1011.58 1011.59 1010.79 1009.40 1008.21 1006.69 1005.87 1005.53 1005.71 1005.53 1005.82 1006.18 1005.63 1005.74 1005.92 1005.40 1003.94 1003.62 1003.58 1003.08 1002.24 1002.05 1001.79 1001.79 1002.02 1002.28 1002.20 1002.21 1002.37 1002.96 1003.07 1003.48 1003.97
1010.59 1010.14 1009.71 1009.31 1009.15 1009.21 1009.26 1009.43 1009.59 1009.82 1010.08 1010.30 1010.31 1010.19 1010.05 1010.05 1010.29 1010.35 1010.20 1010.48 1010.77 1010.73 1009.77 1008.79 1008.33 1007.58 1006.37 1006.21 1005.67 1005.56 1005.32 1005.41 1005.73 1005.13 1005.31 1005.52 1005.10 1004.29 1003.91 1003.24 1002.60 1001.87 1001.31 1000.88 1000.80 1000.72 1000.77 1000.76 1001.07 1002.23 1002.55 1002.72 1003.03 1003.18
1010.50 1010.23 1009.82 1009.38 1008.88 1008.73 1008.78 1008.99 1009.26 1009.68 1009.67 1009.81 1009.78 1009.86 1009.89 1009.84 1009.76 1009.80 1009.57 1009.37 1009.25 1008.35 1007.50 1007.36 1006.92 1007.01 1006.10 1005.71 1005.70 1005.26 1005.04 1005.05 1004.96 1004.76 1005.17 1005.06 1004.60 1004.21 1003.91 1003.30 1002.32 1001.29 1000.55 1000.18 1000.20 1000.65 1000.70 1000.28 1000.83 1001.65 1002.29 1002.61 1002.80 1003.29
1010.50 1010.28 1010.05 1009.62 1009.21 1008.75 1008.39 1008.62 1008.96 1009.18 1009.48 1009.76 1009.67 1009.48 1009.11 1009.06 1008.99 1008.48 1007.82 1007.59 1007.07 1006.11 1005.83 1005.92 1006.07 1005.98 1005.90 1005.65 1005.34 1004.87 1004.55 1004.60 1004.21 1004.69 1004.71 1004.47 1004.48 1004.38 1004.09 1003.50 1002.56 1001.57 1000.54 1000.08 1000.01 1000.18 1000.19 1000.29 1000.55 1001.31 1001.76 1002.13 1002.89 1003.81
1010.59 1010.31 1010.17 1009.78 1009.52 1009.27 1009.02 1008.98 1009.17 1009.30 1009.42 1009.43 1009.27 1009.03 1008.52 1007.83 1007.17 1006.58 1006.19 1005.57 1004.91 1004.80 1004.92 1005.04 1005.24 1005.43 1005.26 1005.29 1004.72 1004.41 1003.56 1003.65 1004.21 1004.53 1004.38 1004.38 1004.50 1004.56 1004.22 1003.74 1003.15 1002.41 1001.67 1000.94 1000.50 1000.18 1000.12 1000.07 1000.26 1000.75 1001.44 1001.65 1002.43 1003.63
1010.32 1010.20 1010.12 1009.97 1009.75 1009.47 1009.28 1009.16 1009.19 1009.38 1009.19 1008.96 1008.81 1008.15 1007.52 1006.63 1006.28 1005.76 1005.33 1005.02 1004.38 1003.98 1004.15 1004.43 1004.47 1004.53 1004.71 1004.59 1004.13 1003.75 1003.72 1003.59 1003.88 1004.25 1004.35 1004.13 1004.39 1004.56 1004.30 1003.79 1003.28 1002.80 1002.38 1001.54 1001.05 1000.54 1000.09 1000.05 1000.47 1000.85 1001.17 1001.57 1002.27 1003.00
1010.15 1010.05 1010.04 1009.92 1009.75 1009.54 1009.30 1009.19 1009.20 1009.23 1008.77 1008.47 1008.20 1007.68 1006.99 1006.74 1006.05 1005.51 1005.08 1004.66 1003.96 1003.83 1003.68 1003.71 1003.85 1004.09 1003.91 1003.82 1003.79 1003.48 1003.50 1003.87 1004.30 1004.18 1004.12 1004.29 1004.48 1004.41 1003.98 1003.46 1003.16 1002.76 1002.46 1002.33 1001.19 1001.06 1000.65 1000.44 1000.71 1001.22 1001.68 1002.01 1002.51 1003.13
1009.97 1009.78 1009.87 1009.77 1009.56 1009.29 1009.12 1009.05 1008.86 1008.61 1008.42 1008.00 1007.60 1007.14 1006.99 1006.78 1006.33 1005.89 1005.55 1004.68 1004.25 1003.97 1003.69 1003.81 1003.84 1003.82 1003.64 1003.62 1003.80 1003.63 1003.67 1003.81 1003.82 1004.05 1004.35 1004.46 1004.50 1004.28 1003.96 1003.54 1003.04 1002.64 1002.30 1002.11 1001.46 1000.89 1001.18 1001.07 1001.16 1001.78 1002.24 1002.52 1002.80 1003.55
1009.86 1009.77 1009.75 1009.66 1009.42 1009.23 1008.84 1008.67 1008.45 1008.25 1007.94 1007.53 1007.41 1006.91 1006.72 1006.59 1006.37 1005.96 1005.37 1004.91 1004.83 1004.10 1003.81 1003.79 1003.86 1003.87 1003.59 1003.75 1004.13 1003.73 1003.63 1003.63 1003.89 1004.12 1004.25 1004.18 1004.11 1003.94 1003.74 1003.31 1002.64 1002.17 1001.83 1001.70 1001.12 1001.03 1001.13 1001.44 1001.56 1002.13 1002.65 1002.98 1003.41 1003.89
1009.65 1009.66 1009.66 1009.59 1009.53 1009.43 1008.91 1008.59 1008.46 1008.04 1007.57 1007.30 1007.00 1006.81 1006.67 1006.50 1006.27 1005.96 1005.58 1005.18 1004.68 1004.24 1004.09 1003.60 1004.53 1003.95 1003.75 1003.52 1003.70 1003.77 1003.75 1003.84 1004.18 1004.17 1004.14 1004.06 1003.97 1003.82 1003.49 1003.01 1002.57 1002.09 1001.50 1001.04 1001.09 1001.04 1001.18 1001.20 1001.59 1002.36 1002.84 1003.80 1003.42 1003.97
1009.32 1009.29 1009.31 1009.46 1009.60 1009.36 1008.89 1008.46 1008.22 1007.92 1007.49 1007.03 1006.85 1006.67 1006.37 1006.08 1005.78 1005.77 1005.68 1005.50 1005.26 1004.41 1004.30 1003.87 1003.69 1003.17 1003.05 1003.15 1003.37 1003.39 1003.53 1003.65 1003.89 1004.08 1004.07 1003.79 1003.67 1003.62 1003.49 1003.15 1002.72 1002.18 1001.74 1001.24 1000.84 1001.07 1001.36 1001.29 1001.53 1002.39 1002.81 1003.72 1004.17 1004.02
1009.13 1008.87 1008.84 1009.32 1009.54 1009.43 1009.12 1008.20 1007.73 1007.47 1007.10 1006.98 1006.50 1006.44 1006.23 1005.94 1005.67 1005.39 1005.16 1004.90 1005.40 1004.83 1004.07 1003.55 1003.10 1002.62 1002.77 1002.93 1003.24 1003.37 1003.35 1003.51 1003.71 1003.77 1003.92 1003.96 1003.56 1003.49 1003.23 1002.82 1002.51 1002.26 1001.89 1001.42 1001.35 1001.24 1001.09 1001.30 1001.51 1001.68 1002.80 1003.61 1004.41 1004.36
1009.02 1008.83 1009.25 1009.36 1009.36 1009.00 1008.65 1007.84 1007.50 1007.04 1007.08 1006.60 1006.42 1006.04 1005.83 1005.59 1005.15 1004.71 1004.29 1004.67 1004.13 1003.41 1003.00 1002.89 1002.83 1002.73 1002.88 1002.81 1002.82 1002.92 1003.05 1003.20 1003.33 1003.49 1003.64 1003.72 1003.58 1003.30 1003.01 1002.66 1002.52 1002.17 1001.55 1001.63 1001.21 1000.95 1000.49 1000.63 1000.99 1002.02 1002.53 1003.56 1004.08 1004.30
1009.00 1009.02 1009.05 1009.04 1009.07 1008.59 1007.93 1007.39 1007.35 1006.86 1006.78 1006.35 1006.15 1005.93 1005.46 1004.99 1004.30 1004.12 1004.13 1003.58 1002.77 1002.11 1002.08 1002.30 1002.25 1002.22 1002.53 1002.43 1002.60 1002.81 1002.92 1003.05 1003.29 1003.24 1003.04 1003.15 1003.06 1002.92 1002.76 1002.41 1002.15 1001.98 1001.62 1001.36 1001.49 1001.22 1001.34 1001.16 1001.65 1002.05 1002.70 1003.28 1003.86 1004.27
1009.00 1009.09 1008.94 1008.86 1008.82 1008.39 1007.74 1007.29 1006.93 1006.66 1006.31 1006.09 1005.86 1005.39 1004.74 1004.31 1004.07 1004.02 1003.61 1002.97 1002.24 1001.93 1002.05 1002.11 1002.23 1002.46 1002.59 1002.49 1002.57 1002.49 1002.26 1002.49 1002.57 1002.54 1002.45 1002.67 1002.76 1002.45 1002.24 1001.96 1001.57 1001.15 1001.18 1001.22 1001.46 1001.49 1001.41 1001.68 1001.88 1001.85 1002.33 1003.04 1003.44 1003.87
1009.51 1009.31 1009.32 1009.25 1008.68 1008.59 1007.92 1007.25 1006.79 1006.54 1006.17 1005.93 1005.71 1005.02 1004.34 1004.08 1004.03 1003.80 1003.27 1002.79 1002.44 1002.49 1002.50 1002.43 1002.44 1002.48 1002.65 1002.42 1002.43 1002.16 1001.79 1001.98 1002.11 1002.01 1001.63 1002.06 1002.11 1002.12 1001.89 1001.55 1001.22 1001.01 1000.91 1000.74 1001.01 1001.27 1001.13 1001.37 1001.74 1002.04 1002.32 1002.72 1003.19 1003.66
1009.47 1009.01 1009.02 1008.68 1008.54 1008.41 1007.79 1007.18 1006.67 1006.31 1006.08 1005.84 1005.30 1004.55 1004.28 1004.16 1003.91 1003.34 1002.81 1002.70 1002.76 1002.80 1002.75 1002.71 1002.69 1002.65 1002.66 1002.65 1002.47 1002.08 1001.57 1001.38 1001.48 1001.58 1000.88 1000.90 1001.01 1001.34 1001.32 1001.20 1000.92 1000.61 1000.39 1000.32 1000.52 1000.60 1000.89 1001.25 1001.60 1002.02 1002.31 1002.70 1003.03 1003.41
1009.12 1008.64 1008.45 1008.12 1008.04 1007.91 1007.52 1006.92 1006.56 1006.33 1005.93 1005.46 1004.85 1004.60 1004.42 1004.10 1003.37 1002.73 1002.53 1002.61 1002.74 1002.83 1002.79 1002.77 1002.72 1002.67 1002.61 1002.50 1002.04 1001.63 1001.19 1000.99 1000.87 1000.40 999.87 999.79 999.87 999.99 1000.18 1000.19 1000.05 999.95 1000.03 1000.04 1000.24 1000.36 1000.45 1000.86 1001.45 1001.93 1002.08 1002.50 1002.81 1002.91
1008.26 1008.09 1008.17 1007.97 1007.99 1007.55 1007.35 1006.78 1006.29 1005.78 1005.15 1004.64 1004.61 1004.32 1003.81 1003.19 1002.49 1002.22 1002.15 1002.06 1002.19 1002.45 1002.66 1002.58 1002.43 1002.41 1002.35 1001.95 1001.51 1001.07 1000.43 1000.10 1000.16 1000.11 999.97 999.73 999.45 999.35 999.38 999.47 999.52 999.64 1000.08 999.90 1000.02 1000.15 1000.29 1000.45 1000.89 1001.28 1001.66 1002.05 1002.44 1002.64
1007.75 1007.37 1007.43 1007.55 1007.35 1006.96 1006.29 1005.85 1005.11 1004.24 1003.60 1003.82 1003.78 1003.28 1002.68 1002.09 1001.56 1001.54 1001.76 1001.67 1001.78 1002.12 1002.37 1002.36 1002.06 1001.88 1001.85 1001.57 1001.20 1000.79 1000.28 1000.19 1000.19 1000.15 999.93 999.73 999.54 999.06 998.79 998.92 999.13 999.43 999.69 999.99 1000.06 1000.13 1000.19 1000.26 1000.40 1000.78 1001.13 1001.34 1001.69 1002.22
1006.59 1006.39 1006.53 1006.35 1006.14 1005.32 1004.01 1003.58 1002.97 1002.40 1002.43 1002.36 1002.22 1002.10 1001.86 1001.37 1000.79 1000.62 1001.12 1001.44 1001.73 1001.71 1001.40 1001.41 1001.46 1001.51 1001.61 1001.48 1000.97 1000.46 1000.07 999.82 999.80 999.76 999.62 999.42 999.02 998.72 998.59 998.52 998.66 998.86 999.14 999.57 1000.03 1000.45 1000.62 1000.64 1000.74 1000.91 1001.14 1001.39 1001.67 1002.13
1005.18 1005.52 1005.42 1004.85 1003.96 1002.66 1001.94 1001.86 1001.88 1001.99 1001.91 1001.85 1001.50 1001.62 1000.92 1000.31 999.93 999.83 999.85 999.87 999.99 1000.09 1000.35 1000.65 1000.76 1000.71 1001.02 1001.01 1000.71 1000.32 999.99 999.62 999.30 999.32 999.31 999.13 998.76 998.35 998.20 998.15 998.22 998.46 998.85 999.28 999.69 1000.09 1000.41 1000.52 1000.60 1000.83 1000.94 1001.06 1001.23 1001.52
1003.94 1003.80 1003.61 1003.10 1002.14 1001.18 1001.05 1001.20 1001.20 1001.16 1000.75 1000.88 1000.62 1000.34 1000.05 999.97 999.40 998.64 998.07 998.41 998.91 999.09 998.94 999.17 999.34 999.61 999.84 999.88 999.71 999.38 999.28 999.04 998.79 998.70 998.62 998.53 998.35 998.03 997.85 997.93 998.03 998.34 998.60 999.03 999.43 999.74 999.98 1000.11 1000.22 1000.34 1000.56 1000.82 1000.99 1001.22
1002.13 1002.08 1001.99 1001.89 1001.21 1000.55 1000.29 1000.60 1000.46 1000.02 999.79 999.65 999.37 999.08 998.90 998.82 998.08 997.46 996.98 996.85 996.83 997.00 997.21 997.38 997.91 998.37 998.43 998.58 998.52 998.40 998.56 998.29 998.22 998.30 998.59 998.50 998.27 997.92 997.65 997.75 997.76 997.90 998.29 998.69 999.09 999.42 999.67 999.97 1000.13 1000.31 1000.51 1000.73 1000.95 1001.13
Wind_Speed
10 9 10 11 11 11 11 10 10 10 11 11 10 9 8 5 7 4 3 4 3 3 6 6 5 3 1 1 2 4 4 4 4 5 2 3 2 2 2 1 3 5 5 3 3 2 5 4 1 6 5 5 6 6
10 10 11 11 11 11 11 11 11 11 11 12 11 10 8 5 7 5 2 1 2 3 7 3 7 11 9 9 3 2 3 3 4 4 0 2 2 1 3 4 2 3 6 5 8 7 4 4 5 5 2 6 6 3
10 11 11 12 12 12 11 11 11 11 12 12 11 10 9 6 8 8 2 1 1 3 7 1 10 9 11 17 12 4 3 3 1 2 4 2 2 4 4 6 2 4 2 2 2 3 8 8 5 6 4 5 7 3
11 12 12 12 12 13 11 11 11 11 12 12 12 11 9 7 8 9 2 2 2 1 4 9 3 7 4 7 14 16 4 3 5 3 3 2 2 3 3 3 3 4 3 3 7 9 5 7 8 6 4 6 7 4
12 13 13 13 13 13 13 11 10 10 11 12 12 11 9 8 8 5 2 4 3 3 4 8 10 6 6 9 14 16 9 4 2 2 2 3 2 3 0 1 4 6 8 7 8 7 5 5 2 2 3 4 7 4
12 13 13 13 13 13 12 11 9 8 10 11 11 10 9 8 6 2 4 1 5 4 1 6 5 6 4 5 9 12 9 3 3 4 4 3 2 4 4 4 9 7 6 7 5 2 2 0 5 4 7 2 1 5
14 14 15 15 14 12 10 10 8 6 5 9 10 9 9 8 3 4 3 1 4 3 1 6 6 5 4 4 3 3 5 3 4 3 3 4 3 5 3 4 13 6 10 10 6 1 5 4 3 2 3 6 5 5
15 15 15 13 12 10 9 8 7 6 6 7 7 8 7 10 2 4 5 13 5 2 1 3 7 6 2 1 2 3 4 1 2 3 1 3 2 2 5 11 8 9 6 8 13 11 5 3 2 4 2 3 5 6
14 15 13 10 10 9 9 7 7 6 6 7 7 9 3 2 3 3 2 11 2 2 2 2 3 5 4 1 1 1 3 3 0 3 4 5 3 6 9 10 10 10 8 9 2 8 8 9 8 5 5 6 5 4
11 13 11 10 9 8 8 8 7 6 7 8 3 3 3 3 5 11 1 3 3 3 2 4 1 5 1 2 2 2 1 3 3 5 3 3 6 9 4 7 9 11 6 6 4 4 5 6 9 4 7 7 8 8
10 10 11 8 8 8 8 9 8 5 8 2 3 3 2 2 2 2 2 3 3 4 4 5 7 3 2 1 3 2 2 2 2 6 5 3 5 4 9 12 11 12 7 11 8 3 7 7 5 9 10 9 9 13
7 9 10 10 8 7 10 10 11 5 2 2 2 2 1 2 2 3 4 2 5 6 4 4 6 6 4 2 2 2 3 2 6 3 3 3 4 6 8 13 15 9 8 8 7 6 7 8 3 8 12 11 12 12
6 7 9 9 10 10 4 9 9 9 6 1 1 2 3 4 5 6 8 4 4 4 4 3 3 3 1 1 2 2 4 6 3 2 4 4 2 5 8 10 13 11 8 3 2 5 6 6 2 8 11 11 7 10
4 5 6 9 7 6 5 6 7 5 1 2 4 4 4 5 5 5 4 3 4 2 3 3 2 4 3 3 3 4 3 3 3 4 5 3 3 5 6 7 8 11 9 8 7 3 6 8 8 7 10 12 12 10
4 5 4 5 9 5 2 2 5 0 2 3 3 4 6 4 3 4 4 3 4 2 2 1 1 3 2 2 3 1 2 3 2 3 3 3 4 4 5 7 6 7 7 5 7 7 6 7 5 5 7 9 8 11
6 7 1 4 7 6 3 2 3 2 2 2 5 3 3 1 3 2 2 3 1 2 1 1 2 2 3 2 3 5 3 2 3 3 3 2 5 6 7 8 7 7 5 6 4 8 6 1 6 6 9 10 11 11
3 1 2 5 8 7 4 2 3 4 3 4 3 2 1 2 4 2 3 3 3 1 2 3 3 4 1 2 1 1 5 4 4 2 1 1 3 6 6 7 6 4 4 4 4 8 5 3 7 9 10 8 10 9
2 1 2 6 6 2 2 2 2 2 4 3 2 1 2 2 1 3 5 6 5 2 1 3 1 1 3 4 3 3 3 1 1 1 2 4 5 5 4 7 8 6 5 4 3 4 2 4 6 4 6 8 10 9
1 1 2 5 4 2 2 2 2 2 4 2 2 2 2 2 3 3 4 7 3 2 2 3 3 4 3 3 3 2 2 2 2 1 2 4 3 4 6 6 7 7 7 6 4 3 2 4 5 5 6 5 8 8
6 8 9 4 2 2 2 2 1 2 2 2 1 2 2 3 2 3 5 3 4 3 3 3 5 5 4 3 3 3 2 3 3 2 2 3 2 3 5 6 5 6 6 7 4 1 3 3 4 5 7 4 6 11
3 2 1 5 1 0 2 3 3 3 2 3 2 2 3 1 3 4 4 4 3 4 3 4 3 2 3 3 3 2 3 4 3 3 3 3 3 3 4 4 4 4 3 5 1 3 4 4 4 5 4 5 3 5
2 2 2 2 2 3 4 3 2 2 1 2 2 2 2 3 4 4 3 3 4 5 5 4 3 3 2 2 4 3 2 2 2 2 2 1 3 3 4 3 3 5 4 2 4 3 3 3 6 6 7 5 5 5
4 2 2 3 3 2 5 2 2 3 3 3 0 2 3 3 4 1 3 4 4 4 5 5 5 6 6 5 2 1 5 5 4 5 4 4 4 4 4 4 3 3 4 3 1 2 2 3 5 7 7 7 6 5
2 2 3 3 4 4 2 2 2 2 1 2 2 4 3 3 0 1 4 3 4 1 3 3 2 0 2 3 2 4 5 5 5 4 4 4 4 5 4 5 4 4 3 3 2 2 4 5 6 7 8 8 7 7
2 5 4 5 2 1 3 3 3 2 3 3 2 4 3 1 1 2 3 3 2 2 2 1 2 3 4 3 2 5 3 5 5 5 4 5 4 2 3 4 5 5 3 4 4 6 6 5 7 7 8 9 11 11
3 5 7 5 3 4 4 3 4 5 4 3 5 3 2 1 2 5 3 2 1 1 1 2 2 0 1 2 3 4 4 3 3 4 6 5 6 5 6 5 4 5 5 4 2 2 5 6 6 8 9 8 10 11
4 5 4 3 2 1 2 3 1 2 4 5 3 2 3 3 5 4 2 3 3 3 3 2 2 1 2 4 4 5 6 4 6 4 3 4 5 6 5 6 6 6 4 6 5 5 6 7 7 7 6 6 8 10
6 2 6 4 4 3 3 3 4 7 5 4 3 5 5 6 5 4 5 4 4 4 3 3 4 4 4 5 5 6 5 3 3 2 2 3 3 3 5 5 5 2 3 6 7 6 6 6 8 10 10 10 9 7
4 3 4 4 3 5 7 7 6 5 4 5 6 4 5 4 3 4 3 4 3 3 2 2 3 2 3 4 4 4 3 1 5 6 7 4 3 5 3 3 4 3 2 3 3 5 6 5 7 8 9 6 6 7
6 5 4 4 5 8 7 9 5 4 4 5 3 1 2 4 5 4 4 4 4 5 5 4 2 1 3 3 5 6 3 1 4 4 5 5 6 3 3 3 3 3 3 4 5 2 3 2 3 3 4 4 6 7
2 4 4 5 6 6 9 5 2 2 3 5 5 5 11 7 3 4 7 7 6 5 4 4 4 4 4 4 4 4 5 2 2 3 6 6 4 4 4 4 3 3 3 4 4 4 4 4 4 4 7 9 10 10
5 9 6 6 5 4 4 5 4 5 4 5 6 5 3 4 8 6 6 9 8 9 11 11 10 9 7 7 6 6 8 4 3 5 9 6 5 7 5 3 3 4 5 6 5 5 5 5 4 6 7 8 8 10
4 5 5 4 4 4 4 3 4 4 3 4 6 6 8 8 9 2 3 8 11 12 12 11 8 9 11 11 10 7 8 4 5 10 11 13 15 11 4 3 4 6 8 6 6 6 6 6 6 5 6 8 8 9
Wind_Direction
311 301 293 291 290 286 280 277 277 270 239 228 210 215 234 244 181 157 260 192 163 241 271 224 232 211 343 123 198 283 8 340 12 58 118 189 171 228 77 271 204 172 143 190 111 131 271 169 141 169 230 289 278 304
301 304 305 303 296 287 279 276 274 264 247 224 211 208 222 230 196 160 278 302 114 204 254 273 241 240 227 222 162 318 190 275 207 91 256 117 158 80 162 220 51 233 189 185 180 211 222 194 232 269 225 254 287 300
309 309 307 301 300 293 281 278 272 263 241 222 208 207 215 223 205 178 204 254 96 284 289 351 238 251 217 221 200 178 271 202 195 151 153 179 173 123 184 241 180 250 164 196 15 250 236 249 231 234 224 241 285 232
305 305 305 304 300 299 290 286 282 263 236 217 203 203 208 218 225 172 177 185 122 237 276 279 302 269 222 174 200 210 135 65 96 92 106 149 153 167 214 234 196 197 119 195 264 278 265 256 244 258 298 301 294 223
300 303 303 303 301 297 295 290 290 263 230 214 198 198 203 210 228 192 200 202 201 151 280 286 302 258 238 177 184 200 187 136 132 119 123 225 155 125 335 35 256 186 197 172 221 226 156 240 275 306 288 309 311 287
299 302 300 298 298 293 289 290 289 282 229 208 192 196 198 201 161 130 298 208 194 169 276 298 293 295 322 142 164 181 180 130 158 164 212 222 221 129 156 219 255 217 208 205 273 247 263 49 254 285 312 26 316 316
301 302 300 297 293 288 281 282 279 272 229 194 182 190 199 179 160 179 202 233 137 113 197 300 304 277 293 128 117 111 149 183 146 198 217 174 205 140 151 216 254 232 232 240 197 44 304 215 171 142 292 312 77 35
304 296 291 286 280 278 269 271 266 241 210 196 191 197 205 166 313 295 211 170 138 133 125 269 273 326 351 206 129 153 123 120 208 201 110 159 87 118 241 244 263 259 243 241 222 194 199 273 154 113 80 85 33 53
301 304 294 283 274 263 254 256 249 229 206 201 183 142 112 167 204 240 124 145 121 109 269 201 242 269 357 332 189 68 146 138 228 197 225 119 171 217 232 239 250 246 202 249 197 168 196 231 248 187 124 101 110 94
316 314 294 277 269 252 236 239 232 211 202 167 137 170 206 205 131 132 257 100 164 234 231 234 217 264 40 7 333 96 330 148 163 241 106 161 245 241 321 301 291 287 236 179 154 206 187 248 223 211 165 170 160 155
337 342 347 305 255 244 232 227 211 187 133 185 186 210 80 61 123 214 182 167 171 242 207 230 193 207 266 183 254 194 185 123 155 251 151 226 270 289 328 309 304 296 238 210 227 211 190 211 228 134 163 173 160 148
353 355 356 3 3 252 227 211 187 167 177 149 132 99 142 153 174 178 201 148 192 226 198 190 208 193 263 124 131 237 169 88 228 143 110 254 258 294 314 316 318 304 263 230 195 218 229 240 133 148 156 161 156 157
351 2 2 4 10 13 206 170 150 125 127 129 193 186 205 150 186 214 182 212 209 204 197 184 223 193 357 63 218 167 171 216 99 108 218 223 270 298 302 319 328 351 358 325 223 164 193 257 149 153 173 175 158 147
324 349 355 11 8 13 40 129 128 123 139 186 168 221 227 176 229 203 210 210 235 191 169 164 194 178 187 151 195 184 217 133 187 182 236 222 215 302 311 309 330 339 359 20 7 339 228 221 221 192 176 171 150 153
296 305 319 338 353 1 352 154 170 177 224 197 176 222 219 253 276 249 240 265 253 233 156 135 208 142 171 207 201 116 160 217 198 212 240 272 323 315 309 310 310 318 326 0 19 355 292 226 208 165 150 148 142 143
293 309 220 310 321 327 327 187 169 209 219 234 205 236 238 327 278 308 303 280 293 294 123 65 156 170 205 172 146 215 121 188 218 219 235 308 333 326 320 325 311 298 278 309 42 24 355 308 129 144 138 147 149 150
282 229 334 326 325 305 255 236 193 206 223 212 233 228 234 258 249 294 314 290 330 256 158 122 145 221 159 80 201 190 173 191 208 243 304 242 268 291 305 302 308 330 341 274 356 27 27 102 117 128 148 152 148 152
246 166 328 342 343 299 237 207 225 212 240 230 226 230 176 211 274 292 322 337 329 353 135 168 130 254 167 148 240 230 237 311 355 308 293 288 285 299 299 299 308 310 307 276 56 14 10 148 125 125 131 140 124 124
240 228 256 349 2 313 280 209 196 239 230 253 231 233 229 207 226 222 270 287 284 288 306 68 217 210 208 203 193 206 199 158 158 292 279 286 309 322 317 315 314 326 325 341 342 353 291 164 117 131 119 180 152 146
271 254 248 212 318 304 262 225 185 229 231 233 246 239 212 224 184 211 207 220 296 326 300 208 200 206 177 207 194 167 169 156 128 44 321 320 324 336 324 313 311 307 305 306 356 121 149 91 96 146 137 152 186 165
334 286 102 148 221 253 271 283 213 223 237 222 234 202 234 209 225 205 216 167 182 232 245 217 245 186 175 148 183 174 148 157 190 180 215 296 315 318 312 302 322 307 293 308 253 196 161 145 149 100 115 136 184 173
268 332 105 215 237 212 240 226 242 258 240 253 270 230 250 243 224 214 152 169 216 213 191 180 212 194 235 252 237 198 237 204 198 228 212 232 294 313 309 302 332 306 329 355 290 310 336 96 107 125 126 139 144 156
331 191 236 205 253 215 258 115 202 209 205 229 275 247 234 234 230 109 208 216 241 216 185 189 210 194 206 247 224 177 178 185 241 255 242 229 245 253 266 271 251 273 309 327 276 238 154 148 172 146 138 149 153 144
276 235 228 217 191 258 321 247 218 236 261 243 222 257 243 226 171 174 243 235 239 303 172 197 153 171 341 300 273 258 242 185 221 250 218 193 240 257 240 271 284 276 191 260 149 209 176 184 178 160 158 166 162 154
71 275 123 272 237 233 240 245 209 186 232 212 239 258 254 76 195 247 235 267 341 20 22 2 178 194 209 250 262 265 236 184 195 211 238 183 226 297 272 257 261 255 257 242 175 179 169 159 176 182 175 170 169 164
209 236 171 207 222 183 215 236 206 206 187 221 231 260 9 168 227 242 229 207 195 160 134 103 119 55 349 212 276 283 278 217 179 195 254 186 199 193 219 230 252 278 206 219 160 153 156 170 168 179 178 172 160 153
245 249 228 228 182 163 272 255 252 186 205 215 223 205 173 217 236 241 203 210 162 212 209 189 185 212 244 267 254 254 264 223 206 225 257 199 205 200 191 189 204 227 177 190 191 190 190 173 168 182 167 162 180 169
231 218 191 199 196 202 228 234 210 209 222 209 137 192 197 205 235 199 193 199 183 170 207 249 227 223 254 278 282 298 286 252 201 287 303 284 259 235 222 231 252 233 203 193 190 187 196 174 170 173 173 180 179 169
235 225 144 205 215 221 215 203 221 225 196 158 176 210 231 228 222 170 208 200 175 166 200 268 286 233 275 270 261 297 316 225 153 200 226 241 307 290 198 208 221 218 197 158 141 181 193 180 165 166 173 169 164 161
242 173 188 201 196 219 226 193 219 216 192 194 189 331 295 257 237 179 163 167 178 206 216 209 224 185 270 304 306 312 266 218 217 192 201 226 228 274 265 206 197 180 149 134 136 130 44 121 95 114 132 143 154 158
189 164 220 216 236 226 220 216 231 179 199 214 206 220 249 262 272 213 206 212 213 196 185 205 229 210 223 238 239 268 289 260 77 322 281 281 274 239 241 242 210 168 157 151 150 161 163 172 170 182 181 179 182 178
190 201 196 221 248 251 143 186 208 213 217 204 238 203 228 237 258 250 201 202 209 224 229 226 222 227 209 229 241 238 228 257 274 309 302 273 249 248 241 225 224 185 169 158 168 177 180 189 175 171 179 184 182 184
216 194 219 272 274 246 192 168 237 256 218 235 242 242 240 240 247 260 234 214 215 223 228 229 207 210 211 223 229 230 213 224 260 277 273 270 260 253 237 194 201 186 169 165 165 162 165 162 167 166 166 163 156 151